Погода в Нордвейке

Нидерланды     52°14′29″N   4°26′44″E
темп.,
°C
ветер,
м/с
пор.,
м/с
влажн.,
%
обл.,
%
осадки,
мм/ч
давл.,
гПа
погр.,
м
19 апреля, пн
пн1923:00+8ссв36775 0.0 1023164
02:00+8с36835 0.0 1023160
05:00+7с35844 0.0 1022125
08:00+7ссв358344 0.0 1021150
11:00+10ссв23695 0.0 1021389
14:00+13ссз2362100 0.1 1020952
17:00+12св126712 0.5 1019633
20:00+11св237712 0.9 101981
20 апреля, вт
вт2023:00+10всв228250 0.1 101921
02:00+9вюв238489 0.1 101951
05:00+8вюв23905 0.0 101944
08:00+8юв22850 0.0 101960
11:00+11вюв01685 0.0 1020306
14:00+12сз436233 0.0 1019904
17:00+11ссз466882 0.0 1018238
20:00+10ссз4774100 0.0 1018210
21 апреля, ср
ср2123:00+10ссв3479100 0.0 1019142
02:00+9ссв237560 0.0 1019100
05:00+8с2482100 0.0 101988
08:00+9с4779100 0.0 1019229
11:00+10с787548 0.0 1021748
14:00+10с775915 0.0 1022862
17:00+9с77572 0.0 1022949
20:00+8ссв675515 0.0 1022968
22 апреля, чт
чт2223:00+6ссв476437 0.0 1024831
02:00+6ссв35675 0.0 1024546
05:00+5с356785 0.0 1024573
08:00+6с466690 0.0 1024827
11:00+8ссз5660100 0.0 10251198
14:00+8ссз6658100 0.0 10251019
17:00+8с6662100 0.0 1026895
20:00+8с576915 0.0 1026798
23 апреля, пт
пт2323:00+7ссв357713 0.0 1027423
02:00+6ссв23805 0.0 1027264
05:00+6ссв23805 0.0 1027258
08:00+6с23765 0.0 1027306
11:00+9ссз22635 0.0 1028638
14:00+9ссз43605 0.0 1027676
17:00+9с44585 0.0 1026519
20:00+9ссв566263 0.0 1025405